sat.trackr.live / text

‹ back to catalog

STARLINK-1566

NORAD 46079 · 2020-055BE

PAYLOAD ACTIVE UNKNOWN

§ Identity

Operator
Country
US
Launch date
2020-08-07
Launch site
AFETR
Launch vehicle
Mass (kg)
RCS (m²)

Purposes: comms

External: N2YO · Heavens-Above · Gunter

§ Orbital elements

Epoch: 2026-05-25T03:56:24.351936Z

Period
94.01 min
Inclination
53.1598°
Eccentricity
0.0001107
Mean motion
15.31674863 rev/d
Perigee alt
470.1 km
Apogee alt
471.6 km
Semi-major
6,849.0 km
B*
-2.6631e-4
RAAN
105.4538°
Arg perigee
75.0346°
Mean anomaly
285.0778°
Rev number
32,095

§ Raw data

STARLINK-15661 46079U 20055BE  26145.16417074 -.00008613  00000+0 -26631-3 0  99962 46079  53.1598 105.4538 0001107  75.0346 285.0778 15.31674863320959

JSON: /api/v1/satellites/46079 · /tle

For live sub-satellite position, see the globe view (requires WebGL).

§ Visibility from observer

Set your observer location to see the next 7 days of passes ≥ 10°. The values pass through the URL so the page stays shareable.

No JS? Fill the form by hand. The geolocation button needs JavaScript.